This demonstration page uses our WeatherBlox Daily Observations layout. Learn more.

Hourly Observations for October 19, 2018

Temp ( °F °C ) Dew Point ( °F °C ) Humidity (%) Winds ( mph kmh ) Pressure ( in mb ) Visibility ( mi km ) Precip ( " mm )
12:15 am 00:15 Cloudy with Light Drizzle 51 10.5 48 8.8 89 89 SSW 8 13 30.12 1020 10 16.0934 0 0
12:35 am 00:35 Cloudy with Light Rain 51 10.4 48 9 91 91 SSW 8 13 30.12 1020 10 16.0934 0 0
12:55 am 00:55 Cloudy 50 10.1 49 9.3 95 95 SW 7 11 30.15 1021 10 16.0934 0 0
1:15 am 01:15 Cloudy 50 10.1 49 9.2 94 94 SSW 9 15 30.15 1021 10 16.0934 0 0
1:35 am 01:35 Cloudy 50 10.2 49 9.5 95 95 SSW 13 20 30.15 1021 10 16.0934 0 0
1:55 am 01:55 Cloudy 51 10.5 49 9.5 94 94 SW 12 19 30.12 1020 10 16.0934 0 0
2:15 am 02:15 Cloudy 51 10.5 49 9.5 94 94 SSW 13 20 30.12 1020 10 16.0934 0 0
2:35 am 02:35 Cloudy 51 10.3 49 9.5 95 95 SW 12 19 30.15 1021 10 16.0934 0 0
2:55 am 02:55 Cloudy 50 10.2 49 9.5 95 95 SW 12 19 30.09 1019 10 16.0934 0 0
3:15 am 03:15 Cloudy 50 10.1 49 9.6 97 97 SSW 9 15 30.09 1019 10 16.0934 0 0
3:35 am 03:35 Cloudy 50 10 49 9.6 97 97 SSW 12 19 30.12 1020 10 16.0934 0 0
3:55 am 03:55 Cloudy 49 9.7 49 9.3 97 97 SSW 12 19 30.09 1019 10 16.0934 0 0
4:15 am 04:15 Partly Cloudy 49 9.2 48 9 99 99 SSW 9 15 30.09 1019 10 16.0934 0 0
4:35 am 04:35 Clear 48 8.7 48 8.7 100 100 SSW 10 17 30.09 1019 10 16.0934 0 0
4:55 am 04:55 Clear 47 8.6 47 8.6 100 100 SSW 9 15 30.09 1019 10 16.0934 0 0
5:15 am 05:15 Clear 47 8.5 47 8.5 100 100 SSW 10 17 30.06 1018 10 16.0934 0 0
5:35 am 05:35 Clear 47 8.2 47 8.2 100 100 SW 8 13 30.09 1019 10 16.0934 0 0
5:55 am 05:55 Clear 47 8.2 47 8.2 100 100 SSW 9 15 30.06 1018 10 16.0934 0 0
6:15 am 06:15 Clear 47 8.1 47 8.1 100 100 SSW 10 17 30.06 1018 10 16.0934 0 0
6:35 am 06:35 Clear 46 8 46 8 100 100 SSW 9 15 30.06 1018 10 16.0934 0 0
6:55 am 06:55 Clear 46 8 46 8 100 100 SW 9 15 30.06 1018 10 16.0934 0 0
7:15 am 07:15 Clear 46 7.7 46 7.7 100 100 SW 10 17 30.06 1018 10 16.0934 0 0
7:35 am 07:35 Clear 46 7.5 46 7.5 100 100 SW 12 19 30.06 1018 10 16.0934 0 0
7:55 am 07:55 Sunny 45 7.2 45 7.2 100 100 SW 8 13 30.06 1018 10 16.0934 0 0
8:15 am 08:15 Sunny 45 7.3 45 7.3 100 100 SW 9 15 30.09 1019 10 16.0934 0 0
8:35 am 08:35 Sunny 46 7.9 46 7.9 100 100 SW 9 15 30.09 1019 10 16.0934 0 0
8:55 am 08:55 Sunny 47 8.3 47 8.1 99 99 WSW 8 13 30.09 1019 10 16.0934 0 0
9:15 am 09:15 Sunny 48 9 47 8.4 96 96 WSW 10 17 30.09 1019 10 16.0934 0 0
9:35 am 09:35 Sunny 49 9.5 47 8.4 93 93 W 9 15 30.09 1019 10 16.0934 0 0
9:55 am 09:55 Sunny 50 10.2 48 8.8 91 91 W 10 17 30.09 1019 10 16.0934 0 0
10:15 am 10:15 Sunny 52 11.3 48 8.8 85 85 WNW 10 17 30.09 1019 10 16.0934 0 0
10:35 am 10:35 Sunny 54 12.3 47 8.4 77 77 NW 9 15 30.09 1019 10 16.0934 0 0
10:55 am 10:55 Sunny 56 13.4 48 8.7 73 73 NW 8 13 30.09 1019 10 16.0934 0 0
11:15 am 11:15 Sunny 58 14.6 46 8 65 65 NW 9 15 30.06 1018 10 16.0934 0 0
11:35 am 11:35 Sunny 60 15.7 46 7.5 58 58 NNW 10 17 30.06 1018 10 16.0934 0 0
11:55 am 11:55 Sunny 62 16.7 46 7.9 56 56 NNW 12 19 30.06 1018 10 16.0934 0 0
12:15 pm 12:15 Sunny 64 17.9 46 7.5 51 51 NW 13 20 30.03 1017 10 16.0934 0 0
12:35 pm 12:35 Sunny 66 19 46 7.7 48 48 NW 12 19 30.03 1017 10 16.0934 0 0
12:55 pm 12:55 Sunny 69 20.4 44 6.7 41 41 NNW 16 26 30 1016 10 16.0934 0 0
1:15 pm 13:15 Sunny 70 21 42 5.4 36 36 NNW 16 26 30 1016 10 16.0934 0 0
1:35 pm 13:35 Sunny 70 21.2 42 5.6 36 36 NNW 20 31 30 1016 10 16.0934 0 0
1:55 pm 13:55 Sunny 70 21.1 40 4.7 34 34 NNW 16 26 30 1016 10 16.0934 0 0
2:15 pm 14:15 Sunny 71 21.5 40 4.6 33 33 N 21 33 30.03 1017 10 16.0934 0 0
2:35 pm 14:35 Sunny 70 21.3 40 4.7 34 34 N 18 30 30.03 1017 10 16.0934 0 0
2:55 pm 14:55 Sunny 71 21.4 41 5.1 35 35 N 22 35 30.03 1017 10 16.0934 0 0
3:15 pm 15:15 Sunny 70 21.1 41 5.1 35 35 N 14 22 30.03 1017 10 16.0934 0 0
3:35 pm 15:35 Sunny 70 21 40 4.2 33 33 N 20 31 30.03 1017 10 16.0934 0 0
3:55 pm 15:55 Sunny 70 21.1 37 2.5 29 29 N 18 30 30.03 1017 10 16.0934 0 0
4:15 pm 16:15 Sunny 70 21 35 1.8 28 28 N 21 33 30.03 1017 10 16.0934 0 0
4:35 pm 16:35 Sunny 70 20.9 36 2.3 29 29 N 16 26 30.03 1017 10 16.0934 0 0
4:55 pm 16:55 Sunny 69 20.5 35 1.6 29 29 N 18 30 30.06 1018 10 16.0934 0 0
5:15 pm 17:15 Sunny 68 20.2 35 1.4 29 29 N 17 28 30.06 1018 10 16.0934 0 0
5:35 pm 17:35 Sunny 67 19.6 33 0.7 28 28 N 20 31 30.06 1018 10 16.0934 0 0
5:55 pm 17:55 Sunny 66 19 34 1.1 30 30 N 15 24 30.06 1018 10 16.0934 0 0
6:15 pm 18:15 Sunny 65 18.3 34 1 31 31 N 10 17 30.09 1019 10 16.0934 0 0
6:35 pm 18:35 Sunny 62 16.9 34 1.2 35 35 N 7 11 30.12 1020 10 16.0934 0 0
6:55 pm 18:55 Clear 60 15.8 34 0.9 37 37 N 10 17 30.12 1020 10 16.0934 0 0
7:15 pm 19:15 Clear 58 14.6 33 0.5 38 38 NNW 7 11 30.15 1021 10 16.0934 0 0
7:35 pm 19:35 Clear 55 12.7 33 0.5 43 43 NW 6 9 30.18 1022 10 16.0934 0 0
7:55 pm 19:55 Clear 53 11.6 33 0.6 47 47 WNW 5 7 30.18 1022 10 16.0934 0 0
8:15 pm 20:15 Clear 51 10.6 33 0.8 51 51 WNW 6 9 30.21 1023 10 16.0934 0 0
8:35 pm 20:35 Clear 50 10.1 34 1 54 54 WNW 7 11 30.21 1023 10 16.0934 0 0
8:55 pm 20:55 Clear 49 9.2 34 0.9 56 56 NW 6 9 30.24 1024 10 16.0934 0 0
9:15 pm 21:15 Clear 48 8.7 34 1.2 60 60 NW 7 11 30.24 1024 10 16.0934 0 0
9:35 pm 21:35 Clear 48 8.8 34 1.2 59 59 NW 7 11 30.24 1024 10 16.0934 0 0
9:55 pm 21:55 Clear 47 8.5 34 1.2 60 60 WNW 7 11 30.24 1024 10 16.0934 0 0
10:15 pm 22:15 Clear 47 8.5 34 1.2 60 60 WNW 6 9 30.24 1024 10 16.0934 0 0
10:35 pm 22:35 Clear 46 7.7 34 1 63 63 WNW 6 9 30.3 1026 10 16.0934 0 0
10:55 pm 22:55 Clear 45 7 34 1.1 66 66 NW 7 11 30.3 1026 10 16.0934 0 0
11:15 pm 23:15 Clear 45 7.1 34 1.2 66 66 NW 5 7 30.3 1026 10 16.0934 0 0
11:35 pm 23:35 Clear 43 6.1 34 1 70 70 WNW 6 9 30.3 1026 10 16.0934 0 0
11:55 pm 23:55 Clear 42 5.8 33 0.8 71 71 WNW 6 9 30.3 1026 10 16.0934 0 0

Powered by AerisWeather